Latest Coastal Weather Observations for Lady Elliot Island

IDQ60701

Issued at 10:52 am EST Tuesday 21 May 2024 (issued every 10 minutes, with the page automatically refreshed every 10 minutes)

About coastal observations | Map of coastal stations | Coastal observations for QLD | Marine services | Other Formats
Station Details ID: 039059 Name: LADY ELLIOT ISLAND Lat: -24.11 Lon: 152.72 Height: 3.6 m
Data from the previous 72 hours. | See also: Recent months at Lady Elliot Island
Date/Time
EST
Wind Sea
Height
m
Swell Vis
km
Cloud Weather Temp
°C
Press
MSL
hPa
Rain since
9am
mm
Dir  Spd
kts
Gust
kts
Height
m
Period
s
Dir
21/10:30am SSE 12 18 - - - - - - - 23.2 1020.4 0.0
21/10:00am SSE 13 18 - - - - - - - 23.2 1020.5 0.0
21/09:30am SSE 13 19 - - - - - - - 22.9 1020.7 0.0
21/09:00am SSE 14 18 - - - - - - - 22.7 1020.7 -
21/08:30am SSE 13 17 - - - - - - - 22.4 1020.6 -
21/08:00am SSE 12 18 - - - - - - - 22.0 1020.6 -
21/07:30am SSE 13 18 - - - - - - - 21.4 1020.4 -
21/07:00am SSE 12 18 - - - - - - - 21.6 1020.0 -
21/06:30am SSE 13 19 - - - - - - - 21.2 1019.5 -
21/06:00am SSE 11 16 - - - - - - - 21.3 1019.4 -
21/05:30am SSE 12 17 - - - - - - - 21.3 1019.1 -
21/05:00am SSE 13 18 - - - - - - - 21.2 1018.8 -
21/04:30am SSE 13 17 - - - - - - - 21.3 1018.6 -
21/04:00am SSE 13 17 - - - - - - - 21.5 1018.7 -
21/03:30am SSE 11 15 - - - - - - - 21.6 1018.8 -
21/03:00am SSE 12 17 - - - - - - - 21.6 1018.6 -
21/02:30am SSE 11 16 - - - - - - - 21.5 1018.8 -
21/02:00am SSE 11 16 - - - - - - - 21.3 1019.0 -
21/01:30am SSE 11 17 - - - - - - - 21.4 1019.3 -
21/01:00am SSE 11 15 - - - - - - - 21.3 1019.4 0.2
21/12:30am SSE 13 18 - - - - - - - 21.3 1019.7 0.2
21/12:00am SSE 12 15 - - - - - - - 21.3 1019.7 0.2
 
Date/Time
EST
Wind Sea
Height
m
Swell Vis
km
Cloud Weather Temp
°C
Press
MSL
hPa
Rain since
9am
mm
Dir  Spd
kts
Gust
kts
Height
m
Period
s
Dir
20/11:30pm SSE 11 14 - - - - - - - 21.2 1020.3 0.2
20/11:00pm SSE 11 15 - - - - - - - 21.1 1020.3 0.2
20/10:30pm SSE 11 15 - - - - - - - 21.2 1020.5 0.2
20/10:00pm SSE 11 16 - - - - - - - 21.2 1020.5 0.2
20/09:30pm SSE 12 17 - - - - - - - 21.3 1020.6 0.2
20/09:00pm SSE 12 19 - - - - - - - 21.3 1020.5 0.2
20/08:30pm SSE 11 16 - - - - - - - 21.1 1020.2 0.2
20/08:00pm SSE 11 15 - - - - - - - 21.1 1020.2 0.2
20/07:30pm SSE 12 17 - - - - - - - 21.3 1019.8 0.2
20/07:00pm SSE 11 16 - - - - - - - 21.3 1019.7 0.2
20/06:30pm SSE 11 16 - - - - - - - 21.3 1019.3 0.2
20/06:00pm SSE 11 16 - - - - - - - 21.2 1018.7 0.2
20/05:30pm SSE 12 15 - - - - - - - 21.2 1018.4 0.2
20/05:00pm SSE 11 15 - - - - - - - 21.3 1018.1 0.2
20/04:30pm SSE 10 14 - - - - - - - 21.8 1017.9 0.2
20/04:00pm SSE 11 15 - - - - - - - 22.1 1017.7 0.2
20/03:30pm S 11 15 - - - - - - - 22.2 1017.4 0.2
20/03:00pm SSE 12 17 - - - - - - - 22.2 1017.1 0.2
20/02:30pm S 12 17 - - - - - - - 22.4 1017.1 0.2
20/02:00pm S 13 19 - - - - - - - 22.5 1017.0 0.2
20/01:30pm SSE 14 19 - - - - - - - 22.3 1017.1 0.0
20/01:00pm S 14 21 - - - - - - - 22.2 1017.3 0.0
20/12:30pm S 12 17 - - - - - - - 22.6 1017.9 0.0
20/12:00pm SSE 13 20 - - - - - - - 22.8 1018.3 0.0
20/11:30am S 13 19 - - - - - - - 22.4 1018.6 0.0
20/11:00am S 14 20 - - - - - - - 22.3 1018.9 0.0
20/10:30am S 15 22 - - - - - - - 21.9 1019.1 0.0
20/10:00am S 15 21 - - - - - - - 21.7 1019.3 0.0
20/09:30am S 15 21 - - - - - - - 21.2 1019.5 0.0
20/09:00am S 14 20 - - - - - - - 21.2 1019.5 0.0
20/08:30am S 14 20 - - - - - - - 20.9 1019.3 0.0
20/08:00am S 13 19 - - - - - - - 20.5 1019.2 0.0
20/07:30am S 13 19 - - - - - - - 20.3 1019.0 0.0
20/07:00am S 13 17 - - - - - - - 20.0 1018.7 0.0
20/06:30am S 12 17 - - - - - - - 19.8 1018.7 0.0
20/06:00am S 12 18 - - - - - - - 20.0 1018.4 0.0
20/05:30am S 13 21 - - - - - - - 19.8 1017.9 0.0
20/05:00am S 14 19 - - - - - - - 20.1 1017.6 0.0
20/04:30am S 13 20 - - - - - - - 19.9 1017.4 0.0
20/04:00am S 13 19 - - - - - - - 19.9 1017.3 0.0
20/03:30am S 14 19 - - - - - - - 19.8 1017.1 0.0
20/03:00am S 14 19 - - - - - - - 20.0 1017.1 0.0
20/02:30am S 13 20 - - - - - - - 20.3 1017.2 0.0
20/02:00am S 13 20 - - - - - - - 20.4 1017.3 0.0
20/01:30am S 13 18 - - - - - - - 20.7 1017.5 0.0
20/01:00am S 14 22 - - - - - - - 20.9 1017.7 0.0
20/12:30am S 14 19 - - - - - - - 21.0 1017.9 0.0
20/12:00am S 13 19 - - - - - - - 21.1 1018.0 0.0
 
Date/Time
EST
Wind Sea
Height
m
Swell Vis
km
Cloud Weather Temp
°C
Press
MSL
hPa
Rain since
9am
mm
Dir  Spd
kts
Gust
kts
Height
m
Period
s
Dir
19/11:30pm S 14 22 - - - - - - - 21.2 1018.1 0.0
19/11:00pm SSE 13 19 - - - - - - - 21.3 1018.1 0.0
19/10:30pm SSE 13 19 - - - - - - - 21.1 1018.3 0.0
19/10:00pm SSE 14 20 - - - - - - - 21.1 1018.3 0.0
19/09:30pm SSE 15 21 - - - - - - - 21.1 1018.3 0.0
19/09:00pm SE 15 19 - - - - - - - 21.0 1018.2 0.0
19/08:30pm SSE 14 20 - - - - - - - 21.1 1017.9 0.0
19/08:00pm SSE 13 19 - - - - - - - 21.1 1017.7 0.0
19/07:30pm SSE 13 22 - - - - - - - 21.0 1017.4 0.0
19/07:00pm SSE 14 21 - - - - - - - 20.9 1017.1 0.0
19/06:30pm SSE 14 20 - - - - - - - 21.1 1016.6 0.0
19/06:00pm SSE 15 21 - - - - - - - 21.2 1016.2 0.0
19/05:30pm SSE 14 21 - - - - - - - 21.0 1015.9 0.0
19/05:00pm S 14 21 - - - - - - - 21.1 1015.5 0.0
19/04:30pm S 14 21 - - - - - - - 21.0 1015.2 0.0
19/04:00pm SSE 13 20 - - - - - - - 21.3 1014.9 0.0
19/03:30pm S 15 22 - - - - - - - 21.0 1014.6 0.0
19/03:00pm S 13 19 - - - - - - - 21.1 1014.5 0.0
19/02:30pm S 13 20 - - - - - - - 20.8 1014.6 0.0
19/02:00pm S 13 20 - - - - - - - 20.7 1014.6 0.0
19/01:30pm S 14 19 - - - - - - - 20.7 1014.7 0.0
19/01:00pm S 13 21 - - - - - - - 20.9 1014.9 0.0
19/12:30pm S 14 19 - - - - - - - 20.6 1015.2 0.0
19/12:00pm S 14 21 - - - - - - - 20.5 1015.4 0.0
19/11:30am S 15 20 - - - - - - - 20.0 1015.7 0.0
19/11:00am S 14 21 - - - - - - - 19.4 1016.1 0.0
19/10:30am S 14 20 - - - - - - - 19.2 1016.4 0.0
19/10:00am S 15 21 - - - - - - - 19.3 1016.6 0.0
19/09:30am S 14 21 - - - - - - - 19.1 1016.6 0.0
19/09:00am S 18 24 - - - - - - - 18.6 1016.4 0.0
19/08:30am S 17 25 - - - - - - - 18.3 1016.3 0.0
19/08:00am S 17 26 - - - - - - - 18.1 1016.1 0.0
19/07:30am S 18 28 - - - - - - - 17.7 1016.0 0.0
19/07:00am S 17 25 - - - - - - - 17.4 1015.7 0.0
19/06:30am S 18 25 - - - - - - - 17.1 1015.2 0.0
19/06:03am SSW 18 28 - - - - - - - 16.9 1015.0 0.0
19/06:00am SSW 19 28 - - - - - - - 16.9 1015.1 0.0
19/05:43am SSW 19 29 - - - - - - - 17.2 1014.8 0.0
19/05:30am SSW 19 26 - - - - - - - 17.1 1014.7 0.0
19/05:26am SSW 18 28 - - - - - - - 17.2 1014.9 0.0
19/05:00am SSW 19 25 - - - - - - - 17.4 1014.4 0.0
19/04:30am SSW 18 24 - - - - - - - 17.6 1014.7 0.0
19/04:00am SSW 19 25 - - - - - - - 17.7 1014.6 0.0
19/03:30am SSW 19 28 - - - - - - - 18.2 1014.4 0.0
19/03:00am SSW 19 26 - - - - - - - 18.3 1014.2 0.0
19/02:30am SSW 23 32 - - - - - - - 18.4 1014.2 0.0
19/02:12am SSW 21 31 - - - - - - - 18.6 1014.1 0.0
19/02:00am SSW 21 27 - - - - - - - 18.9 1014.3 0.0
19/01:49am SSW 21 31 - - - - - - - 19.0 1014.3 0.0
19/01:30am SSW 21 30 - - - - - - - 19.3 1014.4 0.0
19/01:29am SSW 21 31 - - - - - - - 19.3 1014.4 0.0
19/01:00am SSW 21 29 - - - - - - - 19.9 1014.5 0.0
19/12:44am SSW 20 31 - - - - - - - 20.2 1014.4 0.0
19/12:30am SSW 20 26 - - - - - - - 20.4 1014.3 0.0
19/12:00am SSW 20 28 - - - - - - - 21.2 1014.2 0.0
 
Date/Time
EST
Wind Sea
Height
m
Swell Vis
km
Cloud Weather Temp
°C
Press
MSL
hPa
Rain since
9am
mm
Dir  Spd
kts
Gust
kts
Height
m
Period
s
Dir
18/11:30pm SSW 21 28 - - - - - - - 22.0 1014.4 0.0
18/11:00pm SSW 19 25 - - - - - - - 22.0 1014.6 0.0
18/10:30pm SSW 16 21 - - - - - - - 22.4 1014.7 0.0
18/10:00pm SW 10 15 - - - - - - - 22.1 1014.7 0.0
18/09:30pm SSW 8 13 - - - - - - - 21.4 1014.9 0.0
18/09:00pm SSW 5 7 - - - - - - - 20.6 1014.9 0.0
18/08:30pm S 5 7 - - - - - - - 21.2 1014.8 0.0
18/08:00pm S 5 7 - - - - - - - 22.0 1014.8 0.0
18/07:30pm S 7 9 - - - - - - - 22.3 1014.6 0.0
18/07:00pm SSE 7 9 - - - - - - - 22.1 1014.2 0.0
18/06:30pm SSE 8 11 - - - - - - - 22.3 1014.0 0.0
18/06:00pm SSE 10 13 - - - - - - - 22.4 1013.7 0.0
18/05:30pm SSE 9 13 - - - - - - - 22.2 1013.5 0.0
18/05:00pm SSE 10 15 - - - - - - - 22.4 1013.3 0.0
18/04:30pm SSE 10 14 - - - - - - - 22.6 1013.2 0.0
18/04:00pm SSE 11 16 - - - - - - - 22.9 1013.0 0.0
18/03:30pm SSE 12 17 - - - - - - - 23.2 1013.1 0.0
18/03:00pm S 12 19 - - - - - - - 23.4 1013.1 0.0
18/02:30pm S 11 17 - - - - - - - 23.2 1013.2 0.0
18/02:00pm S 12 17 - - - - - - - 22.9 1013.4 0.0
18/01:30pm S 12 17 - - - - - - - 23.2 1013.6 0.0
18/01:00pm S 13 19 - - - - - - - 23.1 1013.9 0.0
18/12:30pm S 14 19 - - - - - - - 23.0 1014.2 0.0
18/12:00pm S 13 19 - - - - - - - 23.2 1014.6 0.0
18/11:30am S 13 19 - - - - - - - 22.7 1015.2 0.0
18/11:00am S 12 18 - - - - - - - 22.8 1015.7 0.0

Other formats

Comma delimited format used in spreadsheet applications
http://www.bom.gov.au/fwo/IDQ60701/IDQ60701.94388.axf

JavaScript Object Notation format (JSON) in row-major order
http://www.bom.gov.au/fwo/IDQ60701/IDQ60701.94388.json

Data quality

Most of these data are generated automatically and are frequently updated. Quality checks on data are not normally performed. It is possible for incorrect values to appear. Refer to information at About Latest Weather Observations and please check the disclaimer before using these data.